Flag for U.S.A. Weather past 2 weeks in Hollywood, California, U.S.A.

Now
87 °F

Sunny.


Feels Like: 88 °F
Forecast: 70 / 87 °F
Wind: 8 mph from South

Location: Burbank-Glendale-Pasadena Airport

Current Time: Jul 29, 2015 at 5:54:56 PM

Latest Report: Jul 29, 2015 at 4:53 PM


Visibility: 10 mi

Pressure: 29.85 "Hg

Humidity: 43%

Dew point: 62 °F

Location of HollywoodLocation

Historic Weather in Hollywood — Graph

°F

Hollywood temperature yesterday

Maximum temperature yesterday: 88 °F (at 2:53 PM)
Minimum temperature yesterday: 64 °F (at 5:01 AM)
Average temperature yesterday: 75 °F

Past Weeks' High & Low Weather Summary

 TemperatureHumidityPressure
High91 °F (Jul 25, 3:53 PM)90% (Jul 18, 9:53 PM)30.07 "Hg (Jul 18, 9:53 PM)
Low63 °F (Jul 17, 4:53 AM)21% (Jul 17, 3:53 PM)29.75 "Hg (Jul 17, 5:53 PM)
Average75 °F64%29.90 "Hg
* Reported Jul 14 4:53 PM — Jul 29 4:53 PM, Hollywood, Weather by CustomWeather, © 2015

Note: Actual official high and low records may vary slightly from our data, if they occured in-between our weather recording intervals... More about our weather records

Advertising

Hollywood weather history for previous 24 hours

 ConditionsComfort  
Time TempWeatherWind HumidityBarometerVisibility
4:53 PM
Wed, Jul 29
87 °FSunny.8 mph43%29.85 "Hg10 mi
3:53 PM86 °FSunny.7 mph45%29.85 "Hg10 mi
2:53 PM87 °FSunny.10 mph43%29.88 "Hg10 mi
1:53 PM88 °FSunny.8 mph42%29.88 "Hg10 mi
12:53 PM85 °FSunny.5 mph46%29.90 "Hg10 mi
11:53 AM82 °FSunny.10 mph51%29.91 "Hg10 mi
10:53 AM78 °FSunny.7 mph58%29.91 "Hg8 mi
9:53 AM73 °FSunny.No wind69%29.91 "Hg8 mi
9:02 AM70 °FPartly sunny.5 mph78%29.95 "Hg5 mi
8:53 AM67 °FLow clouds.5 mph85%29.91 "Hg4 mi
7:53 AM66 °FFog.5 mph87%29.90 "Hg3 mi
6:53 AM66 °FClear.3 mph84%29.88 "Hg7 mi
5:53 AM66 °FClear.3 mph84%29.88 "Hg9 mi
4:53 AM67 °FClear.No wind85%29.87 "Hg9 mi
3:53 AM67 °FClear.3 mph81%29.87 "Hg10 mi
2:53 AM68 °FClear.No wind82%29.86 "Hg9 mi
1:53 AM68 °FClear.No wind82%29.87 "Hg10 mi
12:53 AM68 °FClear.3 mph82%29.89 "Hg10 mi
11:53 PM
Tue, Jul 28
69 °FClear.7 mph79%29.88 "Hg10 mi
10:53 PM71 °FClear.8 mph76%29.87 "Hg10 mi
9:53 PM73 °FClear.7 mph69%29.85 "Hg10 mi
8:53 PM75 °FSunny.6 mph58%29.83 "Hg10 mi
7:53 PM77 °FSunny.7 mph58%29.81 "Hg10 mi
6:53 PM83 °FSunny.8 mph44%29.79 "Hg10 mi
5:53 PM85 °FSunny.8 mph42%29.79 "Hg10 mi
Weather by CustomWeather, © 2015

See weather overviewHow to use our weather pages